,,,PA_Meas_PMT16A,,PR_Meas_QMR101_102,,RH_Meas_QMH101,,SR_Meas_QMS101,,TA_Meas_QMH101,,GenWind,,GenWind,
date,time,status,PA,status,PR,status,RH,status,SR,status,TA,status,DirAvg,status,SpdAvg,
2010-10-22, 00:00:04,VALID,1009.11,VALID,0,VALID,103.222,VALID,0,VALID,23.6161,VALID,95,VALID,0.683594,
2010-10-22, 00:01:04,VALID,1009.1,VALID,0,VALID,103.207,VALID,0,VALID,23.6356,VALID,106,VALID,0.530469,
2010-10-22, 00:02:04,VALID,1009.11,VALID,0,VALID,103.215,VALID,0,VALID,23.6143,VALID,106,VALID,0.522656,
2010-10-22, 00:03:04,VALID,1009.09,VALID,0,VALID,103.23,VALID,0,VALID,23.6143,VALID,107,VALID,0.419531,
2010-10-22, 00:04:04,VALID,1009.07,VALID,0,VALID,103.23,VALID,0,VALID,23.6356,VALID,107,VALID,0.48125,
2010-10-22, 00:05:04,VALID,1009.04,VALID,0,VALID,103.237,VALID,0.105969,VALID,23.6143,VALID,107,VALID,0.219141,
2010-10-22, 00:06:04,VALID,1009.03,VALID,0,VALID,103.222,VALID,0.105969,VALID,23.6143,VALID,107,VALID,0.2875,
2010-10-22, 00:07:04,VALID,1009.03,VALID,0,VALID,103.222,VALID,0.105969,VALID,23.6161,VALID,107,VALID,0.536719,
2010-10-22, 00:08:04,VALID,1008.98,VALID,0,VALID,103.23,VALID,0,VALID,23.6161,VALID,113,VALID,1.24844,
2010-10-22, 00:09:04,VALID,1008.98,VALID,0,VALID,103.199,VALID,0,VALID,23.6161,VALID,122,VALID,0.796875,
2010-10-22, 00:10:04,VALID,1008.98,VALID,0,VALID,103.146,VALID,0,VALID,23.5966,VALID,121,VALID,0.923437,
2010-10-22, 00:11:04,VALID,1008.95,VALID,0,VALID,103.108,VALID,0.105969,VALID,23.5948,VALID,106,VALID,0.708203,
2010-10-22, 00:12:04,VALID,1008.94,VALID,0,VALID,103.123,VALID,0,VALID,23.5753,VALID,106,VALID,0.692969,
2010-10-22, 00:13:04,VALID,1008.93,VALID,0,VALID,103.108,VALID,0,VALID,23.5948,VALID,106,VALID,0.395312,
2010-10-22, 00:14:04,VALID,1008.94,VALID,0,VALID,103.123,VALID,0,VALID,23.5966,VALID,106,VALID,0.486328,
2010-10-22, 00:15:04,VALID,1008.91,VALID,0,VALID,103.138,VALID,0.105969,VALID,23.5753,VALID,106,VALID,0.532422,
2010-10-22, 00:16:04,VALID,1008.89,VALID,0,VALID,103.154,VALID,0,VALID,23.5771,VALID,106,VALID,0.299219,
2010-10-22, 00:17:04,VALID,1008.89,VALID,0,VALID,103.184,VALID,0,VALID,23.5966,VALID,106,VALID,0.607422,
2010-10-22, 00:18:04,VALID,1008.85,VALID,0,VALID,103.161,VALID,0.105969,VALID,23.5771,VALID,106,VALID,0.312891,
2010-10-22, 00:19:04,VALID,1008.85,VALID,0,VALID,103.169,VALID,0,VALID,23.5558,VALID,106,VALID,0.347656,
2010-10-22, 00:20:04,VALID,1008.82,VALID,0,VALID,103.176,VALID,0,VALID,23.5771,VALID,106,VALID,0.175781,
2010-10-22, 00:21:04,VALID,1008.84,VALID,0,VALID,103.184,VALID,0,VALID,23.5558,VALID,106,VALID,0.315625,
2010-10-22, 00:22:04,VALID,1008.79,VALID,0,VALID,103.176,VALID,0,VALID,23.5576,VALID,106,VALID,0.357422,
2010-10-22, 00:23:04,VALID,1008.76,VALID,0,VALID,103.169,VALID,0,VALID,23.5576,VALID,106,VALID,0.614062,
2010-10-22, 00:24:04,VALID,1008.7,VALID,0,VALID,103.154,VALID,0,VALID,23.5576,VALID,106,VALID,0.450781,
2010-10-22, 00:25:04,VALID,1008.69,VALID,0,VALID,103.123,VALID,0,VALID,23.5771,VALID,106,VALID,0.429297,
2010-10-22, 00:26:04,VALID,1008.68,VALID,0,VALID,103.123,VALID,0,VALID,23.5363,VALID,106,VALID,0.419922,
2010-10-22, 00:27:04,VALID,1008.69,VALID,0,VALID,103.123,VALID,0,VALID,23.5771,VALID,106,VALID,0.467187,
2010-10-22, 00:28:04,VALID,1008.65,VALID,0,VALID,103.161,VALID,0,VALID,23.5576,VALID,106,VALID,0.61875,
2010-10-22, 00:29:04,VALID,1008.62,VALID,0,VALID,103.146,VALID,0,VALID,23.5576,VALID,106,VALID,0.578516,
2010-10-22, 00:30:04,VALID,1008.64,VALID,0,VALID,103.176,VALID,0,VALID,23.5576,VALID,106,VALID,0.571094,
2010-10-22, 00:31:04,VALID,1008.59,VALID,0,VALID,103.184,VALID,0,VALID,23.5381,VALID,106,VALID,0.432031,
2010-10-22, 00:32:04,VALID,1008.58,VALID,0,VALID,103.161,VALID,0.105969,VALID,23.5381,VALID,106,VALID,0.273047,
2010-10-22, 00:33:04,VALID,1008.55,VALID,0,VALID,103.192,VALID,0,VALID,23.5381,VALID,110,VALID,0.903516,
2010-10-22, 00:34:04,VALID,1008.52,VALID,0,VALID,103.146,VALID,0.105969,VALID,23.5381,VALID,119,VALID,0.935938,
2010-10-22, 00:35:04,VALID,1008.47,VALID,0,VALID,103.123,VALID,0.105969,VALID,23.5381,VALID,111,VALID,0.825781,
2010-10-22, 00:36:04,VALID,1008.45,VALID,0,VALID,103.123,VALID,0,VALID,23.5381,VALID,116,VALID,0.964844,
2010-10-22, 00:37:04,VALID,1008.43,VALID,0,VALID,103.108,VALID,0,VALID,23.5186,VALID,101,VALID,0.909766,
2010-10-22, 00:38:04,VALID,1008.42,VALID,0,VALID,103.1,VALID,0,VALID,23.5381,VALID,100,VALID,0.592969,
2010-10-22, 00:39:04,VALID,1008.37,VALID,0,VALID,103.138,VALID,0,VALID,23.5381,VALID,101,VALID,0.733594,
2010-10-22, 00:40:04,VALID,1008.37,VALID,0,VALID,103.146,VALID,0,VALID,23.5186,VALID,108,VALID,0.930859,
2010-10-22, 00:41:04,VALID,1008.34,VALID,0,VALID,103.154,VALID,0,VALID,23.5186,VALID,107,VALID,0.678906,
2010-10-22, 00:42:04,VALID,1008.31,VALID,0,VALID,103.154,VALID,0,VALID,23.5381,VALID,107,VALID,0.837109,
2010-10-22, 00:43:04,VALID,1008.32,VALID,0,VALID,103.161,VALID,0,VALID,23.4974,VALID,111,VALID,0.704297,
2010-10-22, 00:44:04,VALID,1008.32,VALID,0,VALID,103.207,VALID,0,VALID,23.5169,VALID,111,VALID,0.458984,
2010-10-22, 00:45:04,VALID,1008.33,VALID,0,VALID,103.222,VALID,0,VALID,23.5186,VALID,115,VALID,0.551172,
2010-10-22, 00:46:04,VALID,1008.28,VALID,0,VALID,103.23,VALID,0,VALID,23.5186,VALID,113,VALID,0.607031,
2010-10-22, 00:47:04,VALID,1008.26,VALID,0,VALID,103.237,VALID,0,VALID,23.4992,VALID,106,VALID,1.03125,
2010-10-22, 00:48:04,VALID,1008.26,VALID,0,VALID,103.23,VALID,0,VALID,23.4779,VALID,95,VALID,1.22773,
2010-10-22, 00:49:04,VALID,1008.25,VALID,0,VALID,103.184,VALID,0,VALID,23.4797,VALID,99,VALID,1.21094,
2010-10-22, 00:50:04,VALID,1008.22,VALID,0,VALID,103.161,VALID,0,VALID,23.4584,VALID,109,VALID,1.13828,
2010-10-22, 00:51:04,VALID,1008.23,VALID,0,VALID,103.161,VALID,0,VALID,23.4797,VALID,106,VALID,0.897266,
2010-10-22, 00:52:04,VALID,1008.24,VALID,0,VALID,103.184,VALID,0,VALID,23.4602,VALID,106,VALID,1.08398,
2010-10-22, 00:53:04,VALID,1008.25,VALID,0,VALID,103.222,VALID,0,VALID,23.4602,VALID,100,VALID,1.20352,
2010-10-22, 00:54:04,VALID,1008.25,VALID,0,VALID,103.23,VALID,0,VALID,23.4194,VALID,120,VALID,1.52539,
2010-10-22, 00:55:04,VALID,1008.21,VALID,0,VALID,103.222,VALID,0,VALID,23.4407,VALID,111,VALID,1.06758,
2010-10-22, 00:56:04,VALID,1008.19,VALID,0,VALID,103.23,VALID,0,VALID,23.4407,VALID,116,VALID,1.13945,
2010-10-22, 00:57:04,VALID,1008.16,VALID,0,VALID,103.237,VALID,0.105969,VALID,23.4194,VALID,112,VALID,0.771484,
2010-10-22, 00:58:04,VALID,1008.18,VALID,0,VALID,103.268,VALID,0,VALID,23.4,VALID,115,VALID,0.611719,
2010-10-22, 00:59:04,VALID,1008.16,VALID,0,VALID,103.298,VALID,0.105969,VALID,23.4212,VALID,78,VALID,0.833203,
2010-10-22, 01:00:04,VALID,1008.18,VALID,0,VALID,103.306,VALID,0,VALID,23.4017,VALID,84,VALID,0.966016,
2010-10-22, 01:01:04,VALID,1008.2,VALID,0,VALID,103.298,VALID,0.105969,VALID,23.3805,VALID,84,VALID,1.2332,
2010-10-22, 01:02:04,VALID,1008.2,VALID,0,VALID,103.314,VALID,0,VALID,23.3805,VALID,81,VALID,0.755469,
2010-10-22, 01:03:04,VALID,1008.2,VALID,0,VALID,103.306,VALID,0,VALID,23.3415,VALID,95,VALID,1.4543,
2010-10-22, 01:04:04,VALID,1008.2,VALID,0,VALID,103.306,VALID,0,VALID,23.3415,VALID,68,VALID,0.686719,
2010-10-22, 01:05:04,VALID,1008.21,VALID,0,VALID,103.306,VALID,0.105969,VALID,23.322,VALID,71,VALID,1.37227,
2010-10-22, 01:06:04,VALID,1008.2,VALID,0,VALID,103.283,VALID,0,VALID,23.3433,VALID,69,VALID,0.240625,
2010-10-22, 01:07:04,VALID,1008.18,VALID,0,VALID,103.298,VALID,0,VALID,23.3026,VALID,69,VALID,0.442578,
2010-10-22, 01:08:04,VALID,1008.16,VALID,0,VALID,103.321,VALID,0.105969,VALID,23.3026,VALID,69,VALID,0.0515625,
2010-10-22, 01:09:04,VALID,1008.17,VALID,0,VALID,103.337,VALID,0,VALID,23.2831,VALID,76,VALID,0.665625,
2010-10-22, 01:10:04,VALID,1008.14,VALID,0,VALID,103.352,VALID,0,VALID,23.2636,VALID,30,VALID,0.848047,
2010-10-22, 01:11:04,VALID,1008.1,VALID,0,VALID,103.382,VALID,0.105969,VALID,23.2246,VALID,59,VALID,1.1957,
2010-10-22, 01:12:04,VALID,1008.12,VALID,0,VALID,103.428,VALID,0,VALID,23.2459,VALID,96,VALID,0.603516,
2010-10-22, 01:13:04,VALID,1008.07,VALID,0,VALID,103.459,VALID,0,VALID,23.2264,VALID,96,VALID,0.695703,
2010-10-22, 01:14:04,VALID,1008.06,VALID,0,VALID,103.489,VALID,0,VALID,23.1857,VALID,96,VALID,0.717969,
2010-10-22, 01:15:04,VALID,1008.04,VALID,0,VALID,103.504,VALID,0,VALID,23.1874,VALID,102,VALID,1.05391,
2010-10-22, 01:16:04,VALID,1008.06,VALID,0,VALID,103.527,VALID,0,VALID,23.1874,VALID,83,VALID,0.996875,
2010-10-22, 01:17:04,VALID,1008.01,VALID,0,VALID,103.565,VALID,0,VALID,23.1467,VALID,106,VALID,1.32266,
2010-10-22, 01:18:04,VALID,1008.02,VALID,0,VALID,103.588,VALID,0.105969,VALID,23.1874,VALID,110,VALID,0.810938,
2010-10-22, 01:19:04,VALID,1008,VALID,0,VALID,103.611,VALID,0,VALID,23.1679,VALID,90,VALID,1.02148,
2010-10-22, 01:20:04,VALID,1007.99,VALID,0,VALID,103.626,VALID,0.105969,VALID,23.1485,VALID,85,VALID,0.978516,
2010-10-22, 01:21:04,VALID,1008,VALID,0,VALID,103.634,VALID,0,VALID,23.1467,VALID,87,VALID,1.29883,
2010-10-22, 01:22:04,VALID,1007.99,VALID,0,VALID,103.626,VALID,0,VALID,23.1467,VALID,85,VALID,0.972656,
2010-10-22, 01:23:04,VALID,1007.98,VALID,0,VALID,103.626,VALID,0,VALID,23.1662,VALID,90,VALID,1.71563,
2010-10-22, 01:24:04,VALID,1007.97,VALID,0,VALID,103.642,VALID,0.105969,VALID,23.1679,VALID,82,VALID,1.22656,
2010-10-22, 01:25:04,VALID,1007.96,VALID,0,VALID,103.619,VALID,0,VALID,23.1467,VALID,84,VALID,1.55078,
2010-10-22, 01:26:04,VALID,1007.94,VALID,0,VALID,103.603,VALID,0,VALID,23.1679,VALID,75,VALID,1.22109,
2010-10-22, 01:27:04,VALID,1007.93,VALID,0,VALID,103.596,VALID,0,VALID,23.1485,VALID,72,VALID,0.941406,
2010-10-22, 01:28:04,VALID,1007.92,VALID,0,VALID,103.596,VALID,0,VALID,23.1679,VALID,52,VALID,0.519141,
2010-10-22, 01:29:04,VALID,1007.91,VALID,0,VALID,103.558,VALID,0,VALID,23.1485,VALID,77,VALID,0.699609,
2010-10-22, 01:30:04,VALID,1007.89,VALID,0,VALID,103.55,VALID,0,VALID,23.1077,VALID,77,VALID,0.433984,
2010-10-22, 01:31:04,VALID,1007.89,VALID,0,VALID,103.527,VALID,0,VALID,23.1485,VALID,54,VALID,0.654688,
2010-10-22, 01:32:04,VALID,1007.85,VALID,0,VALID,103.542,VALID,0,VALID,23.1077,VALID,69,VALID,0.794922,
2010-10-22, 01:33:04,VALID,1007.85,VALID,0,VALID,103.535,VALID,0,VALID,23.0883,VALID,73,VALID,0.552734,
2010-10-22, 01:34:04,VALID,1007.82,VALID,0,VALID,103.527,VALID,0,VALID,23.1095,VALID,63,VALID,0.478125,
2010-10-22, 01:35:04,VALID,1007.81,VALID,0,VALID,103.542,VALID,0.105969,VALID,23.0883,VALID,72,VALID,0.9125,
2010-10-22, 01:36:04,VALID,1007.79,VALID,0,VALID,103.542,VALID,0,VALID,23.09,VALID,89,VALID,1.12812,
2010-10-22, 01:37:04,VALID,1007.76,VALID,0,VALID,103.542,VALID,0.105969,VALID,23.0883,VALID,69,VALID,0.614453,
2010-10-22, 01:38:04,VALID,1007.76,VALID,0,VALID,103.535,VALID,0,VALID,23.09,VALID,84,VALID,0.326953,
2010-10-22, 01:39:04,VALID,1007.78,VALID,0,VALID,103.565,VALID,0,VALID,23.0688,VALID,84,VALID,0.372266,
2010-10-22, 01:40:04,VALID,1007.77,VALID,0,VALID,103.55,VALID,0,VALID,23.0918,VALID,84,VALID,0.589063,
2010-10-22, 01:41:04,VALID,1007.73,VALID,0,VALID,103.565,VALID,0,VALID,23.0705,VALID,73,VALID,0.544141,
2010-10-22, 01:42:04,VALID,1007.73,VALID,0,VALID,103.565,VALID,0,VALID,23.0918,VALID,70,VALID,0,
2010-10-22, 01:43:04,VALID,1007.7,VALID,0,VALID,103.581,VALID,0,VALID,23.0511,VALID,91,VALID,0.607422,
2010-10-22, 01:44:04,VALID,1007.7,VALID,0,VALID,103.573,VALID,0,VALID,23.0705,VALID,93,VALID,0.501172,
2010-10-22, 01:45:04,VALID,1007.67,VALID,0,VALID,103.573,VALID,0,VALID,23.0511,VALID,93,VALID,0.322266,
2010-10-22, 01:46:04,VALID,1007.64,VALID,0,VALID,103.573,VALID,0,VALID,23.0705,VALID,93,VALID,0.0015625,
2010-10-22, 01:47:04,VALID,1007.61,VALID,0,VALID,103.588,VALID,0,VALID,23.0511,VALID,92,VALID,0.312109,
2010-10-22, 01:48:04,VALID,1007.58,VALID,0,VALID,103.573,VALID,0,VALID,23.0511,VALID,92,VALID,0.470703,
2010-10-22, 01:49:04,VALID,1007.58,VALID,0,VALID,103.573,VALID,0,VALID,23.0511,VALID,92,VALID,0.333984,
2010-10-22, 01:50:04,VALID,1007.59,VALID,0,VALID,103.588,VALID,0,VALID,23.0528,VALID,92,VALID,0.19375,
2010-10-22, 01:51:04,VALID,1007.6,VALID,0,VALID,103.611,VALID,0,VALID,23.0511,VALID,108,VALID,0.564453,
2010-10-22, 01:52:04,VALID,1007.59,VALID,0,VALID,103.619,VALID,0,VALID,23.0528,VALID,108,VALID,0.374219,
2010-10-22, 01:53:04,VALID,1007.59,VALID,0,VALID,103.626,VALID,0.105969,VALID,23.0298,VALID,108,VALID,0.184766,
2010-10-22, 01:54:04,VALID,1007.57,VALID,0,VALID,103.626,VALID,0.105969,VALID,23.0298,VALID,108,VALID,0.232422,
2010-10-22, 01:55:04,VALID,1007.57,VALID,0,VALID,103.626,VALID,0.105969,VALID,23.0298,VALID,88,VALID,0.585547,
2010-10-22, 01:56:04,VALID,1007.55,VALID,0,VALID,103.642,VALID,0.105969,VALID,23.0298,VALID,88,VALID,0.344922,
2010-10-22, 01:57:04,VALID,1007.55,VALID,0,VALID,103.634,VALID,0.105969,VALID,23.0298,VALID,88,VALID,0.312891,
2010-10-22, 01:58:04,VALID,1007.58,VALID,0,VALID,103.626,VALID,0.105969,VALID,23.0103,VALID,88,VALID,0,
2010-10-22, 01:59:04,VALID,1007.61,VALID,0,VALID,103.634,VALID,0.105969,VALID,23.0103,VALID,88,VALID,0.502734,
2010-10-22, 02:00:04,VALID,1007.62,VALID,0,VALID,103.634,VALID,0.105969,VALID,22.9909,VALID,88,VALID,0,
2010-10-22, 02:01:04,VALID,1007.61,VALID,0,VALID,103.642,VALID,0.105969,VALID,22.9909,VALID,88,VALID,0,
2010-10-22, 02:02:04,VALID,1007.61,VALID,0,VALID,103.626,VALID,0.105969,VALID,22.9909,VALID,88,VALID,0,
2010-10-22, 02:03:04,VALID,1007.64,VALID,0,VALID,103.634,VALID,0,VALID,22.9714,VALID,88,VALID,0,
2010-10-22, 02:04:04,VALID,1007.66,VALID,0,VALID,103.642,VALID,0.105969,VALID,22.9926,VALID,88,VALID,0,
2010-10-22, 02:05:04,VALID,1007.66,VALID,0,VALID,103.657,VALID,0.105969,VALID,22.9519,VALID,88,VALID,0,
2010-10-22, 02:06:04,VALID,1007.66,VALID,0,VALID,103.657,VALID,0,VALID,22.9731,VALID,88,VALID,0,
2010-10-22, 02:07:04,VALID,1007.65,VALID,0,VALID,103.672,VALID,0,VALID,22.9749,VALID,88,VALID,0,
2010-10-22, 02:08:04,VALID,1007.64,VALID,0,VALID,103.695,VALID,0.105969,VALID,22.9324,VALID,88,VALID,0,
2010-10-22, 02:09:04,VALID,1007.63,VALID,0,VALID,103.672,VALID,0.105969,VALID,22.9324,VALID,88,VALID,0,
2010-10-22, 02:10:04,VALID,1007.62,VALID,0,VALID,103.687,VALID,0.105969,VALID,22.9342,VALID,88,VALID,0,
2010-10-22, 02:11:04,VALID,1007.57,VALID,0,VALID,103.703,VALID,0.105969,VALID,22.9129,VALID,88,VALID,0,
2010-10-22, 02:12:04,VALID,1007.59,VALID,0,VALID,103.71,VALID,0.105969,VALID,22.9147,VALID,88,VALID,0,
2010-10-22, 02:13:04,VALID,1007.56,VALID,0,VALID,103.726,VALID,0.105969,VALID,22.9129,VALID,88,VALID,0,
2010-10-22, 02:14:04,VALID,1007.52,VALID,0,VALID,103.726,VALID,0.105969,VALID,22.8935,VALID,88,VALID,0,
2010-10-22, 02:15:04,VALID,1007.49,VALID,0,VALID,103.726,VALID,0.105969,VALID,22.8935,VALID,88,VALID,0,
2010-10-22, 02:16:04,VALID,1007.51,VALID,0,VALID,103.718,VALID,0.105969,VALID,22.9129,VALID,88,VALID,0,
2010-10-22, 02:17:04,VALID,1007.47,VALID,0,VALID,103.756,VALID,0.105969,VALID,22.9342,VALID,88,VALID,0,
2010-10-22, 02:18:04,VALID,1007.45,VALID,0,VALID,103.748,VALID,0.105969,VALID,22.8935,VALID,88,VALID,0,
2010-10-22, 02:19:04,VALID,1007.45,VALID,0,VALID,103.771,VALID,0.105969,VALID,22.8935,VALID,88,VALID,0,
2010-10-22, 02:20:05,VALID,1007.42,VALID,0,VALID,103.787,VALID,0.105969,VALID,22.874,VALID,88,VALID,0,
2010-10-22, 02:21:05,VALID,1007.47,VALID,0,VALID,103.748,VALID,0.105969,VALID,22.874,VALID,88,VALID,0,
2010-10-22, 02:22:05,VALID,1007.47,VALID,0,VALID,103.779,VALID,0.105969,VALID,22.8545,VALID,44,VALID,0,
2010-10-22, 02:23:05,VALID,1007.47,VALID,0,VALID,103.771,VALID,0,VALID,22.8368,VALID,44,VALID,0,
2010-10-22, 02:24:05,VALID,1007.46,VALID,0,VALID,103.764,VALID,0,VALID,22.8368,VALID,44,VALID,0,
2010-10-22, 02:25:05,VALID,1007.48,VALID,0,VALID,103.779,VALID,0,VALID,22.8368,VALID,44,VALID,0,
2010-10-22, 02:26:05,VALID,1007.5,VALID,0,VALID,103.787,VALID,0,VALID,22.8368,VALID,44,VALID,0,
2010-10-22, 02:27:05,VALID,1007.52,VALID,0,VALID,103.771,VALID,0,VALID,22.8173,VALID,44,VALID,0,
2010-10-22, 02:28:05,VALID,1007.54,VALID,0,VALID,103.787,VALID,0,VALID,22.8173,VALID,44,VALID,0,
2010-10-22, 02:29:05,VALID,1007.52,VALID,0,VALID,103.756,VALID,0,VALID,22.7961,VALID,44,VALID,0,
2010-10-22, 02:30:05,VALID,1007.55,VALID,0,VALID,103.771,VALID,0,VALID,22.8385,VALID,44,VALID,0,
2010-10-22, 02:31:05,VALID,1007.54,VALID,0,VALID,103.794,VALID,0,VALID,22.8368,VALID,44,VALID,0,
2010-10-22, 02:32:05,VALID,1007.51,VALID,0,VALID,103.794,VALID,0,VALID,22.8385,VALID,44,VALID,0,
2010-10-22, 02:33:05,VALID,1007.5,VALID,0,VALID,103.794,VALID,0,VALID,22.8173,VALID,44,VALID,0,
2010-10-22, 02:34:05,VALID,1007.5,VALID,0,VALID,103.809,VALID,0,VALID,22.8173,VALID,44,VALID,0,
2010-10-22, 02:35:05,VALID,1007.5,VALID,0,VALID,103.802,VALID,0,VALID,22.7978,VALID,44,VALID,0,
2010-10-22, 02:36:05,VALID,1007.48,VALID,0,VALID,103.817,VALID,0,VALID,22.7978,VALID,44,VALID,0,
2010-10-22, 02:37:05,VALID,1007.5,VALID,0,VALID,103.802,VALID,0,VALID,22.7783,VALID,44,VALID,0,
2010-10-22, 02:38:05,VALID,1007.5,VALID,0,VALID,103.809,VALID,0,VALID,22.78,VALID,44,VALID,0,
2010-10-22, 02:39:05,VALID,1007.5,VALID,0,VALID,103.817,VALID,0,VALID,22.7588,VALID,44,VALID,0,
2010-10-22, 02:40:05,VALID,1007.51,VALID,0,VALID,103.817,VALID,0,VALID,22.7394,VALID,44,VALID,0,
2010-10-22, 02:41:05,VALID,1007.53,VALID,0,VALID,103.817,VALID,0,VALID,22.7606,VALID,44,VALID,0,
2010-10-22, 02:42:05,VALID,1007.55,VALID,0,VALID,103.825,VALID,0,VALID,22.7394,VALID,44,VALID,0,
2010-10-22, 02:43:05,VALID,1007.6,VALID,0,VALID,103.832,VALID,0,VALID,22.7199,VALID,44,VALID,0,
2010-10-22, 02:44:05,VALID,1007.62,VALID,0,VALID,103.817,VALID,0,VALID,22.7004,VALID,44,VALID,0,
2010-10-22, 02:45:05,VALID,1007.59,VALID,0,VALID,103.832,VALID,0,VALID,22.7216,VALID,44,VALID,0,
2010-10-22, 02:46:05,VALID,1007.63,VALID,0,VALID,103.825,VALID,0,VALID,22.7004,VALID,44,VALID,0,
2010-10-22, 02:47:05,VALID,1007.64,VALID,0,VALID,103.809,VALID,0,VALID,22.7216,VALID,44,VALID,0,
2010-10-22, 02:48:05,VALID,1007.63,VALID,0,VALID,103.794,VALID,0,VALID,22.7004,VALID,44,VALID,0,
2010-10-22, 02:49:05,VALID,1007.64,VALID,0,VALID,103.825,VALID,0,VALID,22.6792,VALID,44,VALID,0,
2010-10-22, 02:50:05,VALID,1007.64,VALID,0,VALID,103.809,VALID,0,VALID,22.7199,VALID,44,VALID,0,
2010-10-22, 02:51:05,VALID,1007.63,VALID,0,VALID,103.794,VALID,0,VALID,22.7004,VALID,44,VALID,0,
2010-10-22, 02:52:05,VALID,1007.62,VALID,0,VALID,103.787,VALID,0,VALID,22.7199,VALID,44,VALID,0,
2010-10-22, 02:53:05,VALID,1007.64,VALID,0,VALID,103.787,VALID,0,VALID,22.7394,VALID,44,VALID,0,
2010-10-22, 02:54:05,VALID,1007.62,VALID,0,VALID,103.771,VALID,0,VALID,22.7394,VALID,44,VALID,0,
2010-10-22, 02:55:05,VALID,1007.66,VALID,0,VALID,103.779,VALID,0,VALID,22.7606,VALID,44,VALID,0,
2010-10-22, 02:56:05,VALID,1007.67,VALID,0,VALID,103.779,VALID,0,VALID,22.7394,VALID,44,VALID,0,
2010-10-22, 02:57:05,VALID,1007.68,VALID,0,VALID,103.779,VALID,0,VALID,22.7394,VALID,44,VALID,0,
2010-10-22, 02:58:05,VALID,1007.71,VALID,0,VALID,103.771,VALID,0,VALID,22.78,VALID,44,VALID,0,
2010-10-22, 02:59:05,VALID,1007.71,VALID,0,VALID,103.764,VALID,0,VALID,22.7394,VALID,44,VALID,0,
2010-10-22, 03:00:05,VALID,1007.72,VALID,0,VALID,103.764,VALID,0,VALID,22.7588,VALID,44,VALID,0,
2010-10-22, 03:01:05,VALID,1007.71,VALID,0,VALID,103.764,VALID,0,VALID,22.78,VALID,44,VALID,0,
2010-10-22, 03:02:05,VALID,1007.71,VALID,0,VALID,103.779,VALID,0,VALID,22.7394,VALID,44,VALID,0,
2010-10-22, 03:03:05,VALID,1007.72,VALID,0,VALID,103.825,VALID,0,VALID,22.7394,VALID,44,VALID,0,
2010-10-22, 03:04:05,VALID,1007.7,VALID,0,VALID,103.787,VALID,0,VALID,22.7199,VALID,44,VALID,0,
2010-10-22, 03:05:05,VALID,1007.72,VALID,0,VALID,103.787,VALID,0,VALID,22.7394,VALID,44,VALID,0,
2010-10-22, 03:06:05,VALID,1007.68,VALID,0,VALID,103.764,VALID,0,VALID,22.7394,VALID,44,VALID,0,
2010-10-22, 03:07:05,VALID,1007.7,VALID,0,VALID,103.764,VALID,0,VALID,22.7394,VALID,44,VALID,0,
2010-10-22, 03:08:05,VALID,1007.72,VALID,0,VALID,103.741,VALID,0,VALID,22.7588,VALID,44,VALID,0,
2010-10-22, 03:09:05,VALID,1007.73,VALID,0,VALID,103.733,VALID,0,VALID,22.78,VALID,44,VALID,0,
2010-10-22, 03:10:05,VALID,1007.72,VALID,0,VALID,103.756,VALID,0,VALID,22.7588,VALID,44,VALID,0,
2010-10-22, 03:11:05,VALID,1007.68,VALID,0,VALID,103.787,VALID,0,VALID,22.7394,VALID,44,VALID,0,
2010-10-22, 03:12:05,VALID,1007.7,VALID,0,VALID,103.771,VALID,0,VALID,22.7199,VALID,44,VALID,0,
2010-10-22, 03:13:05,VALID,1007.7,VALID,0,VALID,103.787,VALID,0,VALID,22.7411,VALID,44,VALID,0,
2010-10-22, 03:14:05,VALID,1007.67,VALID,0,VALID,103.779,VALID,0,VALID,22.7411,VALID,44,VALID,0,
2010-10-22, 03:15:05,VALID,1007.66,VALID,0,VALID,103.756,VALID,0,VALID,22.7411,VALID,44,VALID,0,
2010-10-22, 03:16:05,VALID,1007.65,VALID,0,VALID,103.764,VALID,0,VALID,22.7394,VALID,44,VALID,0,
2010-10-22, 03:17:05,VALID,1007.66,VALID,0,VALID,103.764,VALID,0,VALID,22.7394,VALID,44,VALID,0,
2010-10-22, 03:18:05,VALID,1007.63,VALID,0,VALID,103.756,VALID,0,VALID,22.7199,VALID,44,VALID,0,
2010-10-22, 03:19:05,VALID,1007.62,VALID,0,VALID,103.771,VALID,0,VALID,22.7216,VALID,44,VALID,0,
2010-10-22, 03:20:05,VALID,1007.59,VALID,0,VALID,103.756,VALID,0,VALID,22.7199,VALID,44,VALID,0,
2010-10-22, 03:21:05,VALID,1007.61,VALID,0,VALID,103.756,VALID,0,VALID,22.7199,VALID,44,VALID,0,
2010-10-22, 03:22:05,VALID,1007.57,VALID,0,VALID,103.756,VALID,0,VALID,22.7004,VALID,44,VALID,0,
2010-10-22, 03:23:05,VALID,1007.57,VALID,0,VALID,103.779,VALID,0,VALID,22.7411,VALID,44,VALID,0,
2010-10-22, 03:24:05,VALID,1007.57,VALID,0,VALID,103.771,VALID,0,VALID,22.7199,VALID,44,VALID,0,
2010-10-22, 03:25:05,VALID,1007.53,VALID,0,VALID,103.748,VALID,0,VALID,22.7199,VALID,44,VALID,0,
2010-10-22, 03:26:05,VALID,1007.55,VALID,0,VALID,103.764,VALID,0,VALID,22.7004,VALID,44,VALID,0,
2010-10-22, 03:27:05,VALID,1007.53,VALID,0,VALID,103.741,VALID,0,VALID,22.7199,VALID,44,VALID,0,
2010-10-22, 03:28:05,VALID,1007.52,VALID,0,VALID,103.756,VALID,0,VALID,22.7411,VALID,44,VALID,0,
2010-10-22, 03:29:05,VALID,1007.51,VALID,0,VALID,103.802,VALID,0,VALID,22.6809,VALID,44,VALID,0,
2010-10-22, 03:30:05,VALID,1007.49,VALID,0,VALID,103.802,VALID,0,VALID,22.642,VALID,44,VALID,0,
2010-10-22, 03:31:05,VALID,1007.48,VALID,0,VALID,103.787,VALID,0,VALID,22.642,VALID,44,VALID,0,
2010-10-22, 03:32:05,VALID,1007.47,VALID,0,VALID,103.779,VALID,0,VALID,22.642,VALID,44,VALID,0,
2010-10-22, 03:33:05,VALID,1007.45,VALID,0,VALID,103.756,VALID,0,VALID,22.6614,VALID,44,VALID,0,
2010-10-22, 03:34:05,VALID,1007.45,VALID,0,VALID,103.741,VALID,0,VALID,22.6614,VALID,44,VALID,0,
2010-10-22, 03:35:05,VALID,1007.46,VALID,0,VALID,103.748,VALID,0,VALID,22.6614,VALID,44,VALID,0,
2010-10-22, 03:36:05,VALID,1007.46,VALID,0,VALID,103.748,VALID,0,VALID,22.6614,VALID,44,VALID,0,
2010-10-22, 03:37:05,VALID,1007.46,VALID,0,VALID,103.756,VALID,0,VALID,22.642,VALID,138,VALID,0.358203,
2010-10-22, 03:38:05,VALID,1007.47,VALID,0,VALID,103.741,VALID,0,VALID,22.6632,VALID,143,VALID,0.407422,
2010-10-22, 03:39:05,VALID,1007.46,VALID,0,VALID,103.764,VALID,0,VALID,22.6225,VALID,143,VALID,0.243359,
2010-10-22, 03:40:05,VALID,1007.45,VALID,0,VALID,103.756,VALID,0,VALID,22.603,VALID,143,VALID,0.44375,
2010-10-22, 03:41:05,VALID,1007.46,VALID,0,VALID,103.764,VALID,0,VALID,22.6437,VALID,143,VALID,0.0765625,
2010-10-22, 03:42:05,VALID,1007.45,VALID,0,VALID,103.741,VALID,0,VALID,22.6225,VALID,143,VALID,0.00195313,
2010-10-22, 03:43:05,VALID,1007.47,VALID,0,VALID,103.741,VALID,0,VALID,22.603,VALID,143,VALID,0,
2010-10-22, 03:44:05,VALID,1007.47,VALID,0,VALID,103.756,VALID,0,VALID,22.603,VALID,143,VALID,0.276563,
2010-10-22, 03:45:05,VALID,1007.47,VALID,0,VALID,103.733,VALID,0,VALID,22.603,VALID,143,VALID,0.333203,
2010-10-22, 03:46:05,VALID,1007.46,VALID,0,VALID,103.741,VALID,0,VALID,22.6225,VALID,143,VALID,0.579687,
2010-10-22, 03:47:05,VALID,1007.44,VALID,0,VALID,103.726,VALID,0,VALID,22.6225,VALID,143,VALID,0.396094,
2010-10-22, 03:48:05,VALID,1007.42,VALID,0,VALID,103.726,VALID,0,VALID,22.6242,VALID,143,VALID,0.410937,
2010-10-22, 03:49:05,VALID,1007.44,VALID,0,VALID,103.756,VALID,0,VALID,22.603,VALID,143,VALID,0.366406,